GW4746 Weather Reports


Display with metric or nautical units.
time (UTC)temp
F
wind
direction
speed
MPH
gust
MPH
rain 1hr
in
rain 24hr
in
rain mn
in
humidity
%
barometer
mb
20260505111550 67 175 1.0 4.0 0.00 0.00 0.00 80 1005.2
20260505101504 68 159 1.0 4.0 0.00 0.00 0.00 78 1005.2
20260505100001 68 153 1.0 5.0 0.00 0.00 0.00 78 1005.2
20260505094501 69 148 1.0 6.0 0.00 0.00 0.00 77 1005.1
20260505093002 69 188 1.0 4.0 0.00 0.00 0.00 77 1004.9
20260505091500 69 198 0.0 5.0 0.00 0.00 0.00 76 1005.2
20260505090001 69 140 1.0 4.0 0.00 0.00 0.00 76 1005.2
20260505084510 70 219 1.0 3.0 0.00 0.00 0.00 75 1005.2
20260505083000 70 167 2.0 5.0 0.00 0.00 0.00 75 1005.4
20260505081502 70 231 1.0 4.0 0.00 0.00 0.00 74 1005.6
20260505080012 70 188 1.0 3.0 0.00 0.00 0.00 74 1005.7
20260505074504 71 212 0.0 3.0 0.00 0.00 0.00 73 1005.8
20260505073004 71 210 2.0 3.0 0.00 0.00 0.00 73 1006.0
20260505071502 71 256 0.0 4.0 0.00 0.00 0.00 72 1006.1
20260505070005 72 180 2.0 4.0 0.00 0.00 0.00 71 1006.1
20260505064504 72 172 1.0 4.0 0.00 0.00 0.00 70 1006.5
20260505063004 73 225 1.0 5.0 0.00 0.00 0.00 68 1006.5
20260505061505 74 125 2.0 4.0 0.00 0.00 0.00 67 1006.3
20260505060005 74 166 2.0 5.0 0.00 0.00 0.00 66 1006.4
20260505054505 74 157 2.0 5.0 0.00 0.00 0.00 64 1006.5
20260505053004 75 194 1.0 4.0 0.00 0.00 0.00 63 1006.5
20260505051505 75 235 2.0 4.0 0.00 0.00 0.00 62 1006.5
20260505041504 76 238 1.0 4.0 0.00 0.00 0.00 58 1006.3
20260505040011 77 133 2.0 5.0 0.00 0.00 0.00 57 1006.3
20260505034506 77 232 2.0 8.0 0.00 0.00 0.00 55 1006.1
20260505033008 78 145 2.0 6.0 0.00 0.00 0.00 54 1006.0
20260505031504 78 199 2.0 4.0 0.00 0.00 0.00 53 1005.9
20260505030008 79 231 2.0 5.0 0.00 0.00 0.00 52 1005.8
20260505024526 80 130 1.0 5.0 0.00 0.00 0.00 50 1005.6
20260505023006 80 188 2.0 6.0 0.00 0.00 0.00 49 1005.3
20260505021508 81 226 2.0 6.0 0.00 0.00 0.00 48 1005.2
20260505020010 81 247 2.0 6.0 0.00 0.00 0.00 47 1005.2
20260505014508 82 253 4.0 8.0 0.00 0.00 0.00 47 1005.2
20260505013017 83 172 3.0 8.0 0.00 0.00 0.00 46 1005.0
20260505011511 83 226 2.0 8.0 0.00 0.00 0.00 45 1005.0
20260505010009 84 167 2.0 5.0 0.00 0.00 0.00 44 1005.0
20260505004515 85 172 2.0 7.0 0.00 0.00 0.00 43 1004.8
20260505003014 86 165 2.0 7.0 0.00 0.00 0.00 41 1004.8
20260505001510 86 195 3.0 10.0 0.00 0.00 0.00 40 1004.8
20260505000027 87 167 3.0 6.0 0.00 0.00 0.00 40 1005.0
20260504234512 88 243 2.0 8.0 0.00 0.00 0.00 39 1005.3
20260504233017 89 179 2.0 8.0 0.00 0.00 0.00 38 1005.5
20260504231523 89 168 2.0 6.0 0.00 0.00 0.00 40 1005.6
20260504230018 87 161 1.0 10.0 0.00 0.00 0.00 42 1005.9
20260504224514 86 196 3.0 10.0 0.00 0.00 0.00 41 1006.1
20260504223014 87 240 4.0 8.0 0.00 0.00 0.00 41 1006.1
20260504221515 87 200 1.0 10.0 0.00 0.00 0.00 43 1006.4
20260504220019 86 169 1.0 7.0 0.00 0.00 0.00 45 1006.5
20260504214515 85 181 2.0 8.0 0.00 0.00 0.00 45 1006.8
20260504213014 85 230 1.0 6.0 0.00 0.00 0.00 46 1007.0
20260504211516 85 152 2.0 5.0 0.00 0.00 0.00 46 1007.3
20260504210017 85 208 2.0 8.0 0.00 0.00 0.00 46 1007.6
20260504204518 85 178 3.0 5.0 0.00 0.00 0.00 46 1007.8
20260504203022 85 186 2.0 9.0 0.00 0.00 0.00 46 1007.9
20260504201520 85 270 2.0 6.0 0.00 0.00 0.00 47 1008.3
20260504200021 84 161 2.0 6.0 0.00 0.00 0.00 48 1008.6
20260504194531 83 175 1.0 5.0 0.00 0.00 0.00 48 1009.1
20260504193021 82 261 2.0 9.0 0.00 0.00 0.00 50 1009.3
20260504191519 82 196 3.0 6.0 0.00 0.00 0.00 49 1009.4
20260504190021 82 164 2.0 5.0 0.00 0.00 0.00 50 1009.7
20260504184518 82 255 2.0 10.0 0.00 0.00 0.00 50 1010.0
20260504183022 82 239 3.0 8.0 0.00 0.00 0.00 48 1010.2
20260504181516 82 304 1.0 9.0 0.00 0.00 0.00 51 1010.4
20260504180022 80 188 3.0 9.0 0.00 0.00 0.00 52 1010.8
20260504174522 79 193 2.0 8.0 0.00 0.00 0.00 54 1010.9
20260504173021 77 228 2.0 11.0 0.00 0.00 0.00 56 1011.0
20260504171526 76 195 3.0 9.0 0.00 0.00 0.00 58 1011.0